{"data":{"norad_id":57490,"intl_designator":"2023-111A","name":"FENGYUN 3F","alt_names":[],"object_type":"PAYLOAD","status":"ACTIVE","operator":null,"country":"PRC","launch_date":"2023-08-03","launch_site_code":"JSC","launch_vehicle":null,"mission":null,"orbit_class":"UNKNOWN","rcs_meters":null,"size_class":null,"mass_kg":null,"dimensions":null,"purposes":["earth_obs"],"wikipedia_slug":null,"has_3d_model":false,"image_url":null,"decayed_at":null,"tle_current":{"epoch":"2026-09-19T23:03:48.837024Z","epoch_age_seconds":61008,"freshness":"FRESH","line1":"1 57490U 23111A   26262.96098191  .00000001  00000+0  20817-4 0  9996","line2":"2 57490  98.6752 331.1628 0001272 113.1768 246.9543 14.19951675162311","mean_motion":14.19951675,"eccentricity":0.0001272,"inclination_deg":98.6752,"raan_deg":331.1628,"arg_perigee_deg":113.1768,"mean_anomaly_deg":246.9543,"bstar":2.0817e-5,"rev_number":16231,"period_min":101.41190192265,"perigee_km":824.59992312687,"apogee_km":826.43253250803,"semimajor_km":7203.6532278174,"source":"CELESTRAK","updated_at":"2026-09-20T09:00:33.253848Z"}}}